EW9477 Melville NY US current weather conditions

sailwx.info

Wind from 020

Air temperature -7.8° C
Dewpoint -15.2° C

Last reported at 2020-Jan-18 12:02 UTC.
Time now 2020-Jan-18 12:56 UTC

Location: N 40°47' W 073°26'.
View on Google Maps.

See reports from other nearby stations

  
Tides and Currents Weather Stations Pressure Air Temp Water Temp Dewpoint Dewpoint Depression Visibility Wind Speed Wind Dir Waves Ship Positions
date/time (UTC)wind fromknots sea level pressurealtimeterstation pressurevisibilityair tempwater tempwave heightnotes
2020-Jan-18 12:02 020 -7.8
2020-Jan-18 11:48 019 -7.8
2020-Jan-18 11:32 019 -7.8
2020-Jan-18 11:16 016 -7.8
2020-Jan-18 11:02 030 -7.8
2020-Jan-18 10:46 355 -7.8
2020-Jan-18 10:32 355 -7.8
2020-Jan-18 10:17 022 -7.8
2020-Jan-18 10:04 349 -7.8
2020-Jan-18 09:46 336 -7.8
2020-Jan-18 09:31 015 -7.8
2020-Jan-18 09:18 360 -7.8
2020-Jan-18 09:01 355 -8.3
2020-Jan-18 08:47 318 -8.3
2020-Jan-18 08:32 005 -8.3
2020-Jan-18 08:16 049 -8.3
2020-Jan-18 08:01 056 -8.3
2020-Jan-18 07:47 327 -8.3
2020-Jan-18 07:32 327 -8.3
2020-Jan-18 07:16 355 -8.3
2020-Jan-18 07:02 032 -7.8
2020-Jan-18 06:46 005 -7.8
2020-Jan-18 06:31 327 -7.8
2020-Jan-18 06:16 360 -7.8
2020-Jan-18 06:01 350 -7.8
2020-Jan-18 05:46 005 -7.8
2020-Jan-18 05:31 005 -7.8
2020-Jan-18 05:15 342 -7.8
2020-Jan-18 05:00 360 -7.8
2020-Jan-18 04:45 013 -7.8
2020-Jan-18 04:30 294 -7.8
2020-Jan-18 04:16 304 -7.8
2020-Jan-18 04:00 345 -7.8
2020-Jan-18 03:45 029 -7.8
2020-Jan-18 03:32 348 -7.2
2020-Jan-18 03:17 360 -7.2
2020-Jan-18 03:02 340 -7.2
2020-Jan-18 02:47 052 0 gusting 6 -7.2
2020-Jan-18 02:32 005 -6.7
2020-Jan-18 02:16 355 -6.7
2020-Jan-18 02:02 005 0 gusting 3 -6.7
2020-Jan-18 01:47 042 -6.1
2020-Jan-18 01:30 016 -6.1
2020-Jan-18 01:15 005 -5.6
2020-Jan-18 01:00 360 -5.6
2020-Jan-18 00:45 027 1 gusting 6 -5.6
2020-Jan-18 00:30 005 -5.6
2020-Jan-18 00:15 360 -5.6
2020-Jan-18 00:00 005 -5.6
2020-Jan-17 23:45 005 -5.0
2020-Jan-17 23:32 005 -5.0
2020-Jan-17 23:17 005 -4.4
2020-Jan-17 23:01 005 -4.4
2020-Jan-17 22:47 355 -4.4
2020-Jan-17 22:32 005 -3.9
2020-Jan-17 22:16 054 -3.9
2020-Jan-17 22:02 033 1 gusting 6 -3.3
2020-Jan-17 21:47 317 -3.3
2020-Jan-17 21:30 355 -3.3
2020-Jan-17 21:15 350 -3.3
2020-Jan-17 21:01 045 -3.3
2020-Jan-17 20:46 346 2 gusting 12 -2.8
2020-Jan-17 20:30 316 0 gusting 13 -2.8
2020-Jan-17 20:15 355 6 gusting 12 -2.8
2020-Jan-17 20:00 005 0 gusting 11 -2.8
2020-Jan-17 19:45 334 5 gusting 13 -2.8
2020-Jan-17 19:35 019 -3.3
2020-Jan-17 19:17 350 -2.8
2020-Jan-17 19:01 036 -2.8
2020-Jan-17 18:47 005 5 gusting 8 -2.8
2020-Jan-17 18:32 355 4 gusting 12 -2.8
2020-Jan-17 18:16 014 7 gusting 13 -2.8
2020-Jan-17 18:00 313 1 gusting 10 -3.9
2020-Jan-17 17:47 332 2 gusting 11 -3.3
2020-Jan-17 17:31 337 1 gusting 12 -3.9
2020-Jan-17 17:15 325 6 gusting 15 -3.9
2020-Jan-17 17:00 331 6 gusting 14 -4.4
2020-Jan-17 16:45 009 6 gusting 17 -4.4
2020-Jan-17 16:30 328 0 gusting 16 -4.4
2020-Jan-17 16:16 319 5 gusting 12 -4.4
2020-Jan-17 16:00 355 7 gusting 18 -5.0
2020-Jan-17 15:45 053 2 gusting 13 -5.0
2020-Jan-17 15:30 360 6 gusting 12 -5.0
2020-Jan-17 15:15 336 5 gusting 14 -5.0
2020-Jan-17 15:00 022 6 gusting 13 -5.6
2020-Jan-17 14:45 347 3 gusting 12 -5.6
2020-Jan-17 14:30 013 2 gusting 12 -5.6
2020-Jan-17 14:18 021 -5.6
2020-Jan-17 14:02 349 6 gusting 18 -5.6
2020-Jan-17 13:47 015 6 gusting 12 -5.6
2020-Jan-17 13:32 355 4 gusting 13 -5.6
2020-Jan-17 13:18 039 -5.6
2020-Jan-17 13:01 327 5 gusting 13 -6.1
2020-Jan-17 12:46 320 0 gusting 16 -6.1
2020-Jan-17 12:31 360 3 gusting 11 -6.1
2020-Jan-17 12:15 257 2 gusting 13 -5.6
2020-Jan-17 12:01 005 1 gusting 12 -5.6
2020-Jan-17 11:46 331 -5.6
2020-Jan-17 11:31 013 -5.0
2020-Jan-17 11:15 317 4 gusting 11 -5.0
2020-Jan-17 11:00 338 6 gusting 14 -5.0
2020-Jan-17 10:46 360 2 gusting 11 -4.4
2020-Jan-17 10:30 360 0 gusting 9 -4.4
2020-Jan-17 10:15 333 6 gusting 16 -3.9
2020-Jan-17 10:01 337 1 gusting 13 -3.9
2020-Jan-17 09:45 355 2 gusting 13 -3.9
2020-Jan-17 09:30 346 2 gusting 12 -3.3
2020-Jan-17 09:15 349 -3.3
2020-Jan-17 09:00 315 -3.3
2020-Jan-17 08:46 296 5 gusting 14 -2.8
2020-Jan-17 08:33 296 4 gusting 16 -2.8
2020-Jan-17 08:18 313 4 gusting 13 -2.8
2020-Jan-17 07:47 348 6 gusting 15 -2.2
2020-Jan-17 07:32 005 0 gusting 18 -2.2
2020-Jan-17 07:16 244 2 gusting 17 -1.7
2020-Jan-17 06:46 005 4 gusting 15 -1.7
2020-Jan-17 06:32 346 3 gusting 15 -1.1
2020-Jan-17 06:17 010 4 gusting 17 -1.1
2020-Jan-17 05:45 074 7 gusting 24 -0.6
2020-Jan-17 05:30 355 5 gusting 12 -0.6
2020-Jan-17 05:16 346 5 gusting 16 -0.0
2020-Jan-17 04:45 299 4 gusting 14 -0.0
2020-Jan-17 04:31 360 0 gusting 17 0.6
2020-Jan-17 04:15 298 3 gusting 21 0.6
2020-Jan-17 03:45 355 0 gusting 7 0.6
2020-Jan-17 03:30 355 2 gusting 14 1.1
2020-Jan-17 03:15 360 3 gusting 13 1.1
2020-Jan-17 02:45 340 5 gusting 13 1.1
2020-Jan-17 02:32 005 0 gusting 15 1.1
2020-Jan-17 02:30 245 1 gusting 15 1.1
2020-Jan-17 02:17 005 2 gusting 12 1.7
2020-Jan-17 01:46 355 1.7
2020-Jan-17 01:31 360 2 gusting 6 1.7
2020-Jan-17 01:17 331 0 gusting 11 1.7
2020-Jan-17 00:46 346 2.2
2020-Jan-17 00:32 331 0 gusting 11 2.2
2020-Jan-17 00:16 005 2.2
2020-Jan-16 23:46 013 2.8
2020-Jan-16 23:31 304 4 gusting 12 2.8
2020-Jan-16 23:16 332 1 gusting 10 3.3
2020-Jan-16 22:45 269 4 gusting 10 3.3
2020-Jan-16 22:30 346 3 gusting 12 3.3
2020-Jan-16 22:16 186 6 gusting 15 3.3
2020-Jan-16 21:46 308 5 gusting 15 4.4
2020-Jan-16 21:31 355 2 gusting 10 5.0
2020-Jan-16 21:15 335 4 gusting 13 5.0
2020-Jan-16 20:45 230 1 gusting 9 5.6
2020-Jan-16 20:30 055 1 gusting 6 5.0
2020-Jan-16 20:15 339 3 gusting 10 5.0
2020-Jan-16 19:45 143 2 gusting 13 6.1
2020-Jan-16 19:30 018 4 gusting 13 6.1
2020-Jan-16 19:15 238 4 gusting 12 6.7
2020-Jan-16 18:45 355 4 gusting 13 7.2
2020-Jan-16 18:17 346 7 gusting 23 8.3
2020-Jan-16 17:47 315 3 gusting 11 8.9
2020-Jan-16 17:31 308 2 gusting 12 8.9
2020-Jan-16 17:17 279 3 gusting 11 8.9
2020-Jan-16 16:46 346 3 gusting 9 8.9
2020-Jan-16 16:32 144 3 gusting 9 8.9
2020-Jan-16 16:17 335 2 gusting 13 8.3
2020-Jan-16 15:46 276 3 gusting 11 8.3
2020-Jan-16 15:31 338 2 gusting 10 8.3
2020-Jan-16 15:16 258 4 gusting 9 7.8
2020-Jan-16 14:46 340 1 gusting 13 7.2
2020-Jan-16 14:31 293 3 gusting 14 7.2
2020-Jan-16 14:16 330 5 gusting 13 7.8
2020-Jan-16 13:45 290 7.8
2020-Jan-16 13:30 267 0 gusting 5 7.2
2020-Jan-16 13:16 256 7.2
2020-Jan-16 12:45 250 6.7
2020-Jan-16 12:15 281 6.7